FW4118 Weather Reports


time (UTC)temp
C
wind
direction
speed
KPH
gust
KPH
rain 1hr
cm
rain 24hr
cm
rain mn
cm
humidity
%
barometer
mb
20260509075309 8 80 1.6 4.8 0.00 0.08 0.05
20260509074809 8 356 3.2 4.8 0.00 0.08 0.05
20260509074308 8 55 0.0 0.0 0.00 0.08 0.05
20260509073808 8 55 0.0 0.0 0.00 0.08 0.05
20260509073309 8 55 0.0 3.2 0.00 0.08 0.05
20260509072808 8 47 4.8 11.3 0.00 0.08 0.05
20260509072309 8 44 6.4 9.7 0.00 0.08 0.05
20260509071809 8 215 0.0 0.0 0.00 0.08 0.05
20260509071309 8 215 0.0 0.0 0.00 0.08 0.05
20260509070808 8 215 0.0 0.0 0.00 0.08 0.05
20260509070309 8 215 0.0 0.0 0.00 0.08 0.05
20260509065809 8 215 0.0 0.0 0.00 0.08 0.05
20260509065309 8 215 0.0 0.0 0.00 0.08 0.05
20260509064809 8 215 0.0 0.0 0.00 0.08 0.05
20260509064308 8 215 0.0 0.0 0.00 0.08 0.05
20260509063809 8 215 0.0 0.0 0.00 0.08 0.05
20260509063309 8 215 0.0 0.0 0.00 0.08 0.05
20260509062809 8 215 0.0 0.0 0.00 0.08 0.05
20260509061809 9 215 0.0 0.0 0.00 0.08 0.05
20260509060809 9 215 0.0 0.0 0.00 0.08 0.05
20260509060309 9 215 0.0 0.0 0.00 0.08 0.05
20260509055809 9 215 0.0 0.0 0.00 0.08 0.05
20260509055309 9 215 0.0 0.0 0.00 0.08 0.05
20260509054809 9 215 0.0 0.0 0.00 0.08 0.05
20260509054308 9 215 0.0 0.0 0.00 0.08 0.05
20260509053308 8 215 0.0 0.0 0.03 0.08 0.05
20260509052809 8 215 0.0 0.0 0.03 0.08 0.05
20260509052309 8 215 0.0 0.0 0.03 0.08 0.05
20260509051809 8 215 0.0 0.0 0.03 0.08 0.05
20260509050809 9 215 0.0 0.0 0.05 0.08 0.05
20260509050309 9 215 0.0 0.0 0.05 0.08 0.05
20260509045309 9 215 0.0 0.0 0.03 0.08 0.05
20260509044808 9 215 0.0 0.0 0.03 0.08 0.05
20260509044308 9 215 0.0 0.0 0.03 0.08 0.05
20260509042809 9 215 0.0 0.0 0.00 0.05 0.03
20260509041809 9 215 0.0 0.0 0.00 0.05 0.03
20260509041308 9 215 0.0 0.0 0.00 0.03 0.00
20260509040809 9 215 0.0 0.0 0.00 0.03 0.00
20260509040309 9 215 0.0 0.0 0.00 0.03 0.00
20260509035809 9 215 0.0 0.0 0.00 0.03 0.03
20260509035309 10 215 0.0 0.0 0.00 0.03 0.03
20260509034809 10 215 0.0 0.0 0.00 0.03 0.03
20260509033808 10 215 0.0 0.0 0.00 0.03 0.03
20260509033308 10 215 0.0 0.0 0.00 0.03 0.03
20260509032809 10 215 0.0 0.0 0.00 0.03 0.03
20260509032309 10 215 0.0 0.0 0.00 0.03 0.03
20260509031808 10 215 0.0 0.0 0.00 0.03 0.03
20260509031308 10 215 0.0 0.0 0.00 0.03 0.03
20260509030809 10 215 0.0 0.0 0.00 0.03 0.03
20260509025809 10 215 0.0 0.0 0.00 0.03 0.03
20260509025308 10 215 0.0 0.0 0.00 0.03 0.03
20260509024808 10 215 0.0 0.0 0.00 0.03 0.03
20260509024309 10 215 0.0 0.0 0.00 0.03 0.03
20260509023809 10 215 0.0 0.0 0.00 0.03 0.03
20260509023308 10 215 0.0 0.0 0.00 0.03 0.03
20260509022308 10 215 0.0 0.0 0.00 0.08 0.03
20260509021809 11 215 0.0 0.0 0.00 0.08 0.03
20260509021309 11 215 0.0 0.0 0.00 0.08 0.03
20260509020808 11 215 0.0 0.0 0.00 0.08 0.03
20260509020309 11 215 0.0 0.0 0.00 0.08 0.03
20260509015808 11 215 0.0 4.8 0.00 0.08 0.03
20260509015308 11 231 0.0 4.8 0.00 0.08 0.03
20260509014808 11 232 0.0 9.7 0.00 0.08 0.03
20260509014308 11 250 0.0 4.8 0.00 0.08 0.03
20260509013309 11 268 1.6 8.0 0.00 0.08 0.03
20260509011809 11 243 4.8 14.5 0.00 0.08 0.03
20260509010808 12 227 1.6 4.8 0.00 0.08 0.03
20260509010308 12 258 4.8 11.3 0.00 0.08 0.03
20260509005808 12 234 3.2 11.3 0.00 0.08 0.03
20260509005308 12 264 4.8 11.3 0.00 0.08 0.03
20260509004808 12 259 3.2 11.3 0.00 0.08 0.03
20260509004308 12 253 3.2 12.9 0.00 0.08 0.03
20260509003808 12 258 4.8 12.9 0.00 0.08 0.03
20260509002308 12 267 3.2 12.9 0.00 0.08 0.03
20260509001308 12 298 8.0 16.1 0.00 0.08 0.03
20260509000809 12 250 9.7 22.5 0.00 0.08 0.03
20260509000310 13 289 9.7 22.5 0.00 0.08 0.03
20260508235808 12 279 12.9 24.1 0.00 0.08 0.03
20260508234808 13 261 8.0 20.9 0.00 0.08 0.03
20260508234308 13 262 4.8 12.9 0.00 0.08 0.03
20260508233809 13 292 8.0 19.3 0.00 0.08 0.03
20260508233308 13 253 8.0 22.5 0.00 0.08 0.03
20260508232808 13 277 8.0 19.3 0.00 0.08 0.03
20260508232309 13 292 11.3 22.5 0.00 0.08 0.03
20260508231308 13 284 6.4 19.3 0.00 0.08 0.03
20260508230808 13 248 8.0 20.9 0.00 0.08 0.03
20260508225808 13 232 0.0 8.0 0.00 0.08 0.03
20260508225308 13 131 3.2 12.9 0.00 0.08 0.03
20260508224808 13 287 9.7 16.1 0.00 0.08 0.03
20260508224309 13 241 6.4 12.9 0.00 0.08 0.03
20260508223809 13 257 0.0 16.1 0.00 0.08 0.03
20260508223308 13 246 8.0 14.5 0.00 0.08 0.03
20260508221808 15 253 6.4 14.5 0.00 0.08 0.03
20260508221308 13 262 8.0 19.3 0.00 0.08 0.03
20260508220808 12 245 4.8 14.5 0.00 0.08 0.03
20260508220308 12 238 6.4 14.5 0.00 0.08 0.03
20260508215808 12 266 6.4 14.5 0.00 0.08 0.03
20260508215309 12 239 6.4 14.5 0.00 0.08 0.03
20260508214809 12 256 9.7 16.1 0.00 0.08 0.03
20260508214308 12 255 4.8 11.3 0.00 0.08 0.03
20260508213808 12 284 6.4 14.5 0.00 0.08 0.03
20260508213308 12 293 8.0 20.9 0.00 0.08 0.03
20260508212808 12 260 11.3 20.9 0.00 0.08 0.03
20260508212308 11 242 8.0 14.5 0.00 0.08 0.03
20260508211808 11 252 8.0 20.9 0.00 0.08 0.03
20260508210808 12 241 16.1 29.0 0.00 0.08 0.03
20260508210308 12 254 12.9 29.0 0.00 0.08 0.03
20260508205808 13 256 19.3 35.4 0.00 0.08 0.03
20260508205307 13 267 20.9 37.0 0.00 0.08 0.03
20260508204808 14 276 14.5 33.8 0.00 0.08 0.03
20260508203808 15 252 11.3 19.3 0.00 0.08 0.03
20260508202808 15 254 11.3 20.9 0.00 0.08 0.03
20260508202308 15 241 11.3 19.3 0.00 0.08 0.03
20260508201808 15 233 12.9 22.5 0.00 0.08 0.03
20260508201308 15 237 9.7 14.5 0.00 0.08 0.03
20260508200808 15 257 9.7 14.5 0.00 0.08 0.03
20260508195308 16 241 11.3 14.5 0.00 0.08 0.03
20260508194808 17 219 8.0 16.1 0.00 0.08 0.03
20260508194308 15 238 6.4 11.3 0.00 0.08 0.03
20260508193308 16 318 8.0 11.3 0.00 0.08 0.03
20260508192308 16 215 8.0 11.3 0.03 0.08 0.03
20260508191308 16 286 6.4 11.3 0.03 0.08 0.03
20260508190807 17 273 3.2 14.5 0.03 0.08 0.03
20260508190308 16 313 9.7 12.9 0.03 0.08 0.03
20260508185808 15 226 6.4 12.9 0.03 0.08 0.03
20260508184808 15 312 9.7 16.1 0.03 0.08 0.03
20260508184308 15 311 14.5 27.4 0.03 0.08 0.03
20260508183808 15 304 9.7 20.9 0.03 0.08 0.03
20260508183308 13 312 8.0 16.1 0.03 0.08 0.03
20260508182808 13 254 4.8 12.9 0.03 0.08 0.03
20260508182308 13 296 8.0 14.5 0.00 0.05 0.00
20260508181808 14 290 9.7 16.1 0.00 0.05 0.00
20260508181307 15 287 9.7 24.1 0.00 0.05 0.00
20260508180808 15 281 14.5 25.7 0.00 0.05 0.00
20260508180308 15 284 12.9 25.7 0.00 0.05 0.00
20260508175307 15 262 12.9 27.4 0.00 0.05 0.00
20260508174809 17 292 14.5 29.0 0.00 0.05 0.00
20260508174308 17 308 14.5 24.1 0.00 0.05 0.00
20260508173308 15 285 12.9 27.4 0.00 0.05 0.00
20260508172808 15 295 16.1 29.0 0.00 0.05 0.00
20260508172308 13 293 16.1 27.4 0.00 0.05 0.00
20260508171808 13 294 12.9 27.4 0.00 0.05 0.00
20260508171308 15 292 12.9 19.3 0.00 0.05 0.00
20260508170808 15 307 8.0 20.9 0.00 0.05 0.00
20260508165808 15 302 14.5 25.7 0.00 0.05 0.00
20260508165308 15 312 19.3 32.2 0.00 0.05 0.00
20260508164807 15 303 16.1 27.4 0.00 0.05 0.00
20260508164308 15 301 14.5 24.1 0.00 0.05 0.00
20260508162808 16 308 11.3 19.3 0.00 0.05 0.00
20260508162308 15 307 11.3 19.3 0.00 0.05 0.00
20260508161307 15 294 12.9 25.7 0.00 0.05 0.00
20260508160807 16 299 14.5 24.1 0.00 0.05 0.00
20260508155808 16 295 11.3 22.5 0.00 0.05 0.00
20260508155308 15 304 11.3 22.5 0.00 0.05 0.00
20260508154808 14 300 16.1 29.0 0.00 0.05 0.00
20260508154307 14 305 19.3 33.8 0.00 0.05 0.00
20260508153808 14 307 17.7 32.2 0.00 0.05 0.00
20260508153308 15 319 11.3 22.5 0.00 0.05 0.00
20260508152808 15 281 9.7 24.1 0.00 0.05 0.00
20260508152308 15 309 12.9 24.1 0.00 0.05 0.00
20260508151808 15 312 16.1 27.4 0.00 0.05 0.00
20260508151308 16 281 12.9 25.7 0.00 0.05 0.00
20260508150808 16 299 14.5 32.2 0.00 0.05 0.00
20260508145808 16 274 12.9 25.7 0.00 0.05 0.00
20260508145308 16 265 16.1 29.0 0.00 0.05 0.00
20260508144808 16 282 12.9 24.1 0.00 0.05 0.00
20260508144307 15 288 12.9 24.1 0.00 0.05 0.00
20260508143807 15 250 11.3 22.5 0.00 0.05 0.00
20260508142308 14 270 12.9 29.0 0.00 0.05 0.00
20260508141807 15 240 14.5 29.0 0.00 0.05 0.00
20260508141308 14 276 11.3 27.4 0.00 0.05 0.00
20260508140307 13 251 12.9 24.1 0.00 0.05 0.00
20260508135808 13 254 12.9 27.4 0.00 0.05 0.00
20260508135307 12 254 16.1 25.7 0.00 0.05 0.00
20260508134810 13 254 9.7 27.4 0.00 0.05 0.00
20260508134310 13 258 6.4 19.3 0.00 0.05 0.00
20260508133309 13 297 4.8 11.3 0.00 0.05 0.00
20260508132810 12 298 3.2 11.3 0.00 0.05 0.00
20260508132310 11 315 4.8 11.3 0.00 0.05 0.00
20260508131809 11 295 6.4 11.3 0.00 0.05 0.00
20260508131309 10 309 4.8 9.7 0.00 0.05 0.00
20260508130809 9 289 8.0 9.7 0.00 0.05 0.00
20260508130309 8 317 1.6 4.8 0.00 0.05 0.00
20260508125809 8 209 0.0 0.0 0.00 0.05 0.00
20260508125310 8 209 0.0 0.0 0.00 0.05 0.00
20260508124809 6 209 0.0 0.0 0.00 0.05 0.00
20260508124309 6 209 0.0 0.0 0.00 0.05 0.00
20260508123809 5 209 0.0 0.0 0.00 0.05 0.00
20260508122810 5 209 0.0 0.0 0.00 0.05 0.00
20260508122310 5 209 0.0 0.0 0.00 0.05 0.00
20260508121809 5 209 0.0 0.0 0.00 0.05 0.00
20260508120810 4 209 0.0 0.0 0.00 0.05 0.00
20260508120309 4 209 0.0 0.0 0.00 0.05 0.00
20260508115809 4 209 0.0 0.0 0.00 0.05 0.00
20260508115309 3 209 0.0 0.0 0.00 0.05 0.00
20260508114310 4 209 0.0 0.0 0.00 0.05 0.00
20260508113809 3 209 0.0 0.0 0.00 0.05 0.00
20260508113309 3 209 0.0 0.0 0.00 0.05 0.00
20260508112309 3 209 0.0 0.0 0.00 0.05 0.00
20260508111309 3 209 0.0 0.0 0.00 0.05 0.00
20260508110309 2 209 0.0 0.0 0.00 0.05 0.00
20260508105810 2 209 0.0 0.0 0.00 0.05 0.00
20260508105309 1 209 0.0 0.0 0.00 0.05 0.00
20260508104810 1 209 0.0 0.0 0.00 0.05 0.00
20260508103809 1 209 0.0 0.0 0.00 0.05 0.00
20260508102309 1 209 0.0 0.0 0.00 0.05 0.00
20260508101809 1 209 0.0 0.0 0.00 0.05 0.00
20260508101309 0 209 0.0 0.0 0.00 0.05 0.00
20260508100809 0 209 0.0 0.0 0.00 0.05 0.00
20260508100309 0 209 0.0 0.0 0.00 0.05 0.00
20260508095809 0 209 0.0 0.0 0.00 0.05 0.00
20260508094809 0 209 0.0 0.0 0.00 0.05 0.00
20260508094309 0 209 0.0 0.0 0.00 0.05 0.00
20260508093309 0 209 0.0 0.0 0.00 0.05 0.00
20260508092313 0 209 0.0 0.0 0.00 0.05 0.00
20260508091809 0 209 0.0 0.0 0.00 0.05 0.00
20260508091309 0 209 0.0 0.0 0.00 0.05 0.00
20260508090809 0 209 0.0 0.0 0.00 0.05 0.00
20260508090309 0 209 0.0 0.0 0.00 0.05 0.00
20260508085809 0 209 0.0 0.0 0.00 0.05 0.00
20260508085309 0 209 0.0 0.0 0.00 0.05 0.00
20260508084808 0 209 0.0 0.0 0.00 0.05 0.00
20260508084309 0 209 0.0 0.0 0.00 0.05 0.00
20260508083809 0 209 0.0 0.0 0.00 0.05 0.00
20260508083309 0 209 0.0 0.0 0.00 0.05 0.00
20260508082809 1 209 0.0 0.0 0.00 0.05 0.00
20260508082309 1 209 0.0 0.0 0.00 0.05 0.00
20260508081809 1 209 0.0 0.0 0.00 0.05 0.00
20260508080809 1 209 0.0 0.0 0.00 0.05 0.00
20260508075809 1 209 0.0 0.0 0.00 0.05 0.00